THORAD DELTA 1 DEB, 8561

Orbit data source: Space-Track

THORAD DELTA 1 DEB, 8561 is space debris in SSO originally from a launch on Fri, 15 Nov 1974 UTC launched from the Air Force Western Test Range (AFWTR). Debris objects in space refer to the collection of defunct objects orbiting the Earth. Examples of debris include non-operational satellites, rocket bodies, and fragments generated from explosions, collisions, or faulty payload assembly.

Loading next visibility...
Identifier
8561, 1974-089CY
Orbit
SSO
Country
Flag of USUS
Related business
Manufacturer
Unknown
Mission
Spacecraft
Bus & Motor
Unknown
Mass
Unknown
Launch date (UTC)
1974-11-15 (51 years ago)
Launch vehicle
Unknown
Launch site
Air Force Western Test Range (AFWTR)
Object type
Payload
Rocket body
Debris
Shape & HBR
Unknown shape, 0.1 m
Radar Cross Section
Small (<0.1 m²)

Expand to show TLE details & history
Last TLE update: 10 hours ago

TLE from 10 hours ago
0 THORAD DELTA 1 DEB
1  8561U 74089CY  26130.05983497  .00000360  00000-0  20910-2 0  9998
2  8561 101.4965 173.0408 0065140 239.1822 177.0350 12.67692614370483
Epoch: 2026-05-10T01:26Z
TLE epoch observation values (Epoch: 2026-05-10T01:26:09.741Z)
Latitude
54.66593°
Longitude
-92.95598°
Altitude
1,450.742 km
Speed
7.119 km/s
True Right ascension
10h 25m 48s
True Declination
54° 31' 04"
Sunlit
Object was in daylight at epoch
Visualization orbit readout
Latitude
Unknown
Longitude
Unknown
Altitude
Unknown
Speed
Unknown
Apparent Right ascension
Unknown
Apparent Declination
Unknown
Sunlit
N/A
Visualization observer readout
Local Sidereal Time
19:33:57
Azimuth
Unknown
Elevation
Unknown
Doppler factor
Unknown
Orbital elements
Apogee altitude
1,439.456 km
Perigee altitude
1,338.268 km
Semi-major axis
7,766.999 km
Eccentricity
0.00651
Inclination
101.4965°
RAAN
173.0408°
Arg. of periapsis
239.1822°
True anomaly
177.0733°
Mean anomaly
177.035°
Eccentric anomaly
177.05418°
Mean motion
3.17076 °/min
Orbital period
113.54 mins
BSTAR
0.002091
Loading maneuver chart data...
Computing Atmospheric mass density...

Documentation

Showing up to 5 results
|